contact:dominique.lefevre@mio.osupytheas.fr, maurice.libes@osupytheas.fr, didier.mallarino@osupytheas.fr
Project:EMSO http://www.emso-fr.org/EMSO-France
Depth: 2436.0 m
Title:EMSO Ligure Ouest : Data MII capteur CSTAR
DateTime,Latitude,Longitude,Instrument_Serial,Reference_Counts,Signal_Counts,Corrected_Signal_raw_counts,Calculated_Beam_c_inverse_meters,Internal_thermistor_counts
DateTime,Latitude,Longitude,Instrument_Serial,Reference_Counts,Signal_Counts,Corrected_Signal_raw_counts,Calculated_Beam_c_inverse_meters,Internal_thermistor_counts
2020-10-18T00:10:07,42.805,6.029,CST-1368DR,5900,8255,15081,0.139,551
2020-10-18T00:13:08,42.805,6.029,CST-1368DR,5901,8252,15074,0.141,551
2020-10-18T00:16:10,42.805,6.029,CST-1368DR,5901,8254,15076,0.141,551
2020-10-18T00:19:11,42.805,6.029,CST-1368DR,5902,8254,15075,0.141,551
2020-10-18T00:22:13,42.805,6.029,CST-1368DR,5901,8254,15077,0.141,551
2020-10-18T00:25:15,42.805,6.029,CST-1368DR,5901,8254,15077,0.141,551
2020-10-18T00:28:16,42.805,6.029,CST-1368DR,5901,8253,15076,0.141,551
2020-10-18T00:31:18,42.805,6.029,CST-1368DR,5901,8252,15074,0.141,551
2020-10-18T00:34:19,42.805,6.029,CST-1368DR,5900,8253,15078,0.140,551
2020-10-18T00:37:21,42.805,6.029,CST-1368DR,5900,8252,15076,0.141,550
2020-10-18T00:40:22,42.805,6.029,CST-1368DR,5900,8251,15074,0.141,550
2020-10-18T00:43:24,42.805,6.029,CST-1368DR,5900,8251,15074,0.141,551
2020-10-18T00:46:26,42.805,6.029,CST-1368DR,5899,8251,15077,0.141,551
2020-10-18T00:49:27,42.805,6.029,CST-1368DR,5899,8252,15078,0.140,551
2020-10-18T00:52:29,42.805,6.029,CST-1368DR,5899,8249,15073,0.142,551
2020-10-18T00:55:30,42.805,6.029,CST-1368DR,5899,8252,15079,0.140,551
2020-10-18T00:58:32,42.805,6.029,CST-1368DR,5898,8250,15077,0.141,551
2020-10-18T01:01:33,42.805,6.029,CST-1368DR,5898,8247,15071,0.142,551
2020-10-18T01:04:35,42.805,6.029,CST-1368DR,5898,8248,15074,0.141,550
2020-10-18T01:07:37,42.805,6.029,CST-1368DR,5898,8247,15071,0.142,551
2020-10-18T01:10:38,42.805,6.029,CST-1368DR,5897,8237,15055,0.146,551
2020-10-18T01:13:40,42.805,6.029,CST-1368DR,5897,8248,15076,0.141,551
2020-10-18T01:16:41,42.805,6.029,CST-1368DR,5897,8246,15072,0.142,551
2020-10-18T01:19:43,42.805,6.029,CST-1368DR,5897,8247,15075,0.141,551
2020-10-18T01:22:45,42.805,6.029,CST-1368DR,5897,8247,15073,0.142,551
2020-10-18T01:25:46,42.805,6.029,CST-1368DR,5897,8247,15074,0.141,551
2020-10-18T01:28:48,42.805,6.029,CST-1368DR,5896,8247,15076,0.141,551
2020-10-18T01:31:49,42.805,6.029,CST-1368DR,5896,8246,15075,0.141,551
2020-10-18T01:34:51,42.805,6.029,CST-1368DR,5896,8244,15071,0.142,551
2020-10-18T01:37:52,42.805,6.029,CST-1368DR,5896,8246,15075,0.141,551
2020-10-18T01:40:54,42.805,6.029,CST-1368DR,5896,8245,15073,0.142,551
2020-10-18T01:43:56,42.805,6.029,CST-1368DR,5895,8245,15076,0.141,551
2020-10-18T01:46:57,42.805,6.029,CST-1368DR,5895,8245,15075,0.141,551
2020-10-18T01:49:59,42.805,6.029,CST-1368DR,5895,8244,15074,0.141,551
2020-10-18T01:53:00,42.805,6.029,CST-1368DR,5895,8245,15076,0.141,551
2020-10-18T01:56:02,42.805,6.029,CST-1368DR,5895,8244,15074,0.141,551
2020-10-18T01:59:03,42.805,6.029,CST-1368DR,5894,8244,15076,0.141,551
2020-10-18T02:02:05,42.805,6.029,CST-1368DR,5894,8244,15075,0.141,551
2020-10-18T02:05:07,42.805,6.029,CST-1368DR,5894,8243,15075,0.141,551
2020-10-18T02:08:08,42.805,6.029,CST-1368DR,5894,8242,15073,0.142,551
2020-10-18T02:11:10,42.805,6.029,CST-1368DR,5894,8242,15073,0.142,551
2020-10-18T02:14:11,42.805,6.029,CST-1368DR,5894,8242,15071,0.142,551
2020-10-18T02:17:13,42.805,6.029,CST-1368DR,5894,8243,15074,0.141,551
2020-10-18T02:20:15,42.805,6.029,CST-1368DR,5893,8242,15075,0.141,551
2020-10-18T02:23:16,42.805,6.029,CST-1368DR,5893,8241,15073,0.142,551
2020-10-18T02:26:18,42.805,6.029,CST-1368DR,5893,8242,15074,0.141,551
2020-10-18T02:29:19,42.805,6.029,CST-1368DR,5893,8241,15072,0.142,551
2020-10-18T02:32:21,42.805,6.029,CST-1368DR,5893,8242,15075,0.141,551
2020-10-18T02:35:22,42.805,6.029,CST-1368DR,5892,8242,15078,0.140,551
2020-10-18T02:38:24,42.805,6.029,CST-1368DR,5892,8238,15069,0.143,551
2020-10-18T02:41:26,42.805,6.029,CST-1368DR,5892,8242,15076,0.141,551
2020-10-18T02:44:27,42.805,6.029,CST-1368DR,5892,8239,15071,0.142,551
2020-10-18T02:47:29,42.805,6.029,CST-1368DR,5892,8241,15074,0.141,551
2020-10-18T02:50:30,42.805,6.029,CST-1368DR,5892,8238,15070,0.142,551
2020-10-18T02:53:32,42.805,6.029,CST-1368DR,5892,8240,15074,0.141,551
2020-10-18T02:56:34,42.805,6.029,CST-1368DR,5891,8239,15074,0.141,550
2020-10-18T02:59:35,42.805,6.029,CST-1368DR,5891,8237,15071,0.142,551
2020-10-18T03:02:37,42.805,6.029,CST-1368DR,5891,8240,15076,0.141,551
2020-10-18T03:05:38,42.805,6.029,CST-1368DR,5891,8240,15075,0.141,551
2020-10-18T03:08:40,42.805,6.029,CST-1368DR,5891,8238,15073,0.142,551
2020-10-18T03:11:41,42.805,6.029,CST-1368DR,5891,8236,15069,0.143,551
2020-10-18T03:14:43,42.805,6.029,CST-1368DR,5891,8237,15070,0.142,551
2020-10-18T03:17:45,42.805,6.029,CST-1368DR,5891,8236,15069,0.143,551
2020-10-18T03:20:46,42.805,6.029,CST-1368DR,5891,8238,15071,0.142,551
2020-10-18T03:23:48,42.805,6.029,CST-1368DR,5890,8235,15068,0.143,551
2020-10-18T03:26:49,42.805,6.029,CST-1368DR,5890,8233,15066,0.143,551
2020-10-18T03:29:51,42.805,6.029,CST-1368DR,5890,8240,15078,0.140,551
2020-10-18T03:32:52,42.805,6.029,CST-1368DR,5890,8236,15071,0.142,551
2020-10-18T03:35:54,42.805,6.029,CST-1368DR,5890,8238,15075,0.141,551
2020-10-18T03:38:56,42.805,6.029,CST-1368DR,5890,8233,15066,0.143,551
2020-10-18T03:41:57,42.805,6.029,CST-1368DR,5890,8237,15072,0.142,551
2020-10-18T03:44:59,42.805,6.029,CST-1368DR,5890,8237,15073,0.142,551
2020-10-18T03:48:00,42.805,6.029,CST-1368DR,5889,8236,15073,0.142,551
2020-10-18T03:51:02,42.805,6.029,CST-1368DR,5889,8237,15076,0.141,551
2020-10-18T03:54:04,42.805,6.029,CST-1368DR,5889,8238,15076,0.141,551
2020-10-18T03:57:05,42.805,6.029,CST-1368DR,5889,8237,15076,0.141,551
2020-10-18T04:00:07,42.805,6.029,CST-1368DR,5889,8236,15073,0.142,551
2020-10-18T04:03:08,42.805,6.029,CST-1368DR,5889,8235,15072,0.142,551
2020-10-18T04:06:10,42.805,6.029,CST-1368DR,5889,8235,15072,0.142,551
2020-10-18T04:09:11,42.805,6.029,CST-1368DR,5889,8235,15072,0.142,551
2020-10-18T04:12:13,42.805,6.029,CST-1368DR,5889,8235,15072,0.142,550
2020-10-18T04:15:15,42.805,6.029,CST-1368DR,5889,8236,15074,0.141,551
2020-10-18T04:18:16,42.805,6.029,CST-1368DR,5888,8233,15071,0.142,551
2020-10-18T04:21:18,42.805,6.029,CST-1368DR,5888,8235,15074,0.141,551
2020-10-18T04:24:19,42.805,6.029,CST-1368DR,5888,8236,15075,0.141,551
2020-10-18T04:27:21,42.805,6.029,CST-1368DR,5888,8235,15074,0.141,551
2020-10-18T04:30:23,42.805,6.029,CST-1368DR,5888,8234,15072,0.142,551
2020-10-18T04:33:24,42.805,6.029,CST-1368DR,5888,8236,15075,0.141,551
2020-10-18T04:36:26,42.805,6.029,CST-1368DR,5888,8233,15070,0.142,551
2020-10-18T04:39:27,42.805,6.029,CST-1368DR,5888,8233,15070,0.142,551
2020-10-18T04:42:29,42.805,6.029,CST-1368DR,5888,8234,15072,0.142,551
2020-10-18T04:45:30,42.805,6.029,CST-1368DR,5888,8236,15075,0.141,551
2020-10-18T04:48:32,42.805,6.029,CST-1368DR,5888,8236,15075,0.141,551
2020-10-18T04:51:34,42.805,6.029,CST-1368DR,5888,8233,15071,0.142,551
2020-10-18T04:54:35,42.805,6.029,CST-1368DR,5888,8233,15070,0.142,550
2020-10-18T04:57:37,42.805,6.029,CST-1368DR,5888,8235,15073,0.142,551
2020-10-18T05:00:38,42.805,6.029,CST-1368DR,5887,8234,15075,0.141,551
2020-10-18T05:03:40,42.805,6.029,CST-1368DR,5887,8233,15072,0.142,551
2020-10-18T05:06:41,42.805,6.029,CST-1368DR,5887,8234,15075,0.141,551
2020-10-18T05:09:43,42.805,6.029,CST-1368DR,5887,8234,15075,0.141,551
2020-10-18T05:12:45,42.805,6.029,CST-1368DR,5887,8234,15074,0.141,551
2020-10-18T05:15:46,42.805,6.029,CST-1368DR,5887,8230,15067,0.143,551
2020-10-18T05:18:48,42.805,6.029,CST-1368DR,5887,8233,15072,0.142,551
2020-10-18T05:21:49,42.805,6.029,CST-1368DR,5887,8233,15072,0.142,551
2020-10-18T05:24:51,42.805,6.029,CST-1368DR,5887,8232,15071,0.142,551
2020-10-18T05:27:53,42.805,6.029,CST-1368DR,5887,8233,15073,0.142,551
2020-10-18T05:30:54,42.805,6.029,CST-1368DR,5887,8233,15072,0.142,551
2020-10-18T05:33:56,42.805,6.029,CST-1368DR,5887,8233,15073,0.142,550
2020-10-18T05:36:57,42.805,6.029,CST-1368DR,5887,8234,15074,0.141,551
2020-10-18T05:39:59,42.805,6.029,CST-1368DR,5887,8234,15074,0.141,551
2020-10-18T05:43:00,42.805,6.029,CST-1368DR,5886,8233,15075,0.141,551
2020-10-18T05:46:02,42.805,6.029,CST-1368DR,5886,8233,15076,0.141,551
2020-10-18T05:49:04,42.805,6.029,CST-1368DR,5886,8233,15076,0.141,551
2020-10-18T05:52:05,42.805,6.029,CST-1368DR,5886,8233,15075,0.141,551
2020-10-18T05:55:07,42.805,6.029,CST-1368DR,5886,8230,15069,0.143,551
2020-10-18T05:58:08,42.805,6.029,CST-1368DR,5886,8233,15074,0.141,551
2020-10-18T06:01:10,42.805,6.029,CST-1368DR,5886,8231,15071,0.142,551
2020-10-18T06:04:11,42.805,6.029,CST-1368DR,5886,8232,15073,0.142,551
2020-10-18T06:07:13,42.805,6.029,CST-1368DR,5886,8229,15068,0.143,551
2020-10-18T06:10:15,42.805,6.029,CST-1368DR,5886,8232,15072,0.142,551
2020-10-18T06:13:16,42.805,6.029,CST-1368DR,5886,8232,15073,0.142,551
2020-10-18T06:16:18,42.805,6.029,CST-1368DR,5886,8232,15074,0.141,551
2020-10-18T06:19:19,42.805,6.029,CST-1368DR,5886,8230,15069,0.143,551
2020-10-18T06:22:21,42.805,6.029,CST-1368DR,5886,8231,15072,0.142,551
2020-10-18T06:25:23,42.805,6.029,CST-1368DR,5886,8233,15074,0.141,551
2020-10-18T06:28:24,42.805,6.029,CST-1368DR,5886,8233,15074,0.141,551
2020-10-18T06:31:26,42.805,6.029,CST-1368DR,5885,8232,15075,0.141,551
2020-10-18T06:34:27,42.805,6.029,CST-1368DR,5885,8231,15074,0.141,551
2020-10-18T06:37:29,42.805,6.029,CST-1368DR,5885,8231,15074,0.141,551
2020-10-18T06:40:30,42.805,6.029,CST-1368DR,5885,8231,15074,0.141,551
2020-10-18T06:43:32,42.805,6.029,CST-1368DR,5885,8232,15075,0.141,551
2020-10-18T06:46:34,42.805,6.029,CST-1368DR,5885,8232,15075,0.141,551
2020-10-18T06:49:35,42.805,6.029,CST-1368DR,5885,8230,15073,0.142,551
2020-10-18T06:52:37,42.805,6.029,CST-1368DR,5885,8232,15075,0.141,551
2020-10-18T06:55:38,42.805,6.029,CST-1368DR,5885,8231,15074,0.141,551
2020-10-18T06:58:40,42.805,6.029,CST-1368DR,5885,8232,15075,0.141,551
2020-10-18T07:01:42,42.805,6.029,CST-1368DR,5885,8231,15074,0.141,551
2020-10-18T07:04:43,42.805,6.029,CST-1368DR,5885,8232,15075,0.141,551
2020-10-18T07:07:45,42.805,6.029,CST-1368DR,5885,8232,15075,0.141,550
2020-10-18T07:10:46,42.805,6.029,CST-1368DR,5885,8231,15073,0.142,551
2020-10-18T07:13:48,42.805,6.029,CST-1368DR,5884,8228,15071,0.142,551
2020-10-18T07:16:49,42.805,6.029,CST-1368DR,5885,8230,15073,0.142,551
2020-10-18T07:19:51,42.805,6.029,CST-1368DR,5884,8231,15077,0.141,551
2020-10-18T07:22:53,42.805,6.029,CST-1368DR,5884,8231,15075,0.141,551
2020-10-18T07:25:54,42.805,6.029,CST-1368DR,5884,8230,15075,0.141,551
2020-10-18T07:28:56,42.805,6.029,CST-1368DR,5884,8230,15075,0.141,551
2020-10-18T07:31:57,42.805,6.029,CST-1368DR,5884,8230,15075,0.141,551
2020-10-18T07:34:59,42.805,6.029,CST-1368DR,5884,8230,15074,0.141,551
2020-10-18T07:38:00,42.805,6.029,CST-1368DR,5884,8230,15075,0.141,551
2020-10-18T07:41:02,42.805,6.029,CST-1368DR,5884,8230,15075,0.141,551
2020-10-18T07:44:04,42.805,6.029,CST-1368DR,5884,8229,15073,0.142,551
2020-10-18T07:47:05,42.805,6.029,CST-1368DR,5884,8231,15075,0.141,551
2020-10-18T07:50:07,42.805,6.029,CST-1368DR,5884,8230,15074,0.141,551
2020-10-18T07:53:08,42.805,6.029,CST-1368DR,5884,8230,15075,0.141,551
2020-10-18T07:56:10,42.805,6.029,CST-1368DR,5884,8230,15075,0.141,551
2020-10-18T07:59:12,42.805,6.029,CST-1368DR,5884,8230,15075,0.141,551
2020-10-18T08:02:13,42.805,6.029,CST-1368DR,5884,8229,15073,0.142,551
2020-10-18T08:05:15,42.805,6.029,CST-1368DR,5884,8230,15074,0.141,550
2020-10-18T08:08:16,42.805,6.029,CST-1368DR,5884,8229,15072,0.142,551
2020-10-18T08:11:18,42.805,6.029,CST-1368DR,5884,8230,15074,0.141,551
2020-10-18T08:14:19,42.805,6.029,CST-1368DR,5884,8229,15073,0.142,551
2020-10-18T08:17:21,42.805,6.029,CST-1368DR,5884,8230,15075,0.141,551
2020-10-18T08:20:23,42.805,6.029,CST-1368DR,5883,8229,15075,0.141,551
2020-10-18T08:23:24,42.805,6.029,CST-1368DR,5883,8228,15074,0.141,551
2020-10-18T08:26:26,42.805,6.029,CST-1368DR,5883,8229,15076,0.141,551
2020-10-18T08:29:27,42.805,6.029,CST-1368DR,5883,8230,15076,0.141,551
2020-10-18T08:32:29,42.805,6.029,CST-1368DR,5883,8230,15077,0.141,551
2020-10-18T08:35:31,42.805,6.029,CST-1368DR,5883,8230,15077,0.141,551
2020-10-18T08:38:32,42.805,6.029,CST-1368DR,5883,8225,15067,0.143,551
2020-10-18T08:41:34,42.805,6.029,CST-1368DR,5883,8228,15073,0.142,551
2020-10-18T08:44:35,42.805,6.029,CST-1368DR,5883,8229,15076,0.141,551
2020-10-18T08:47:37,42.805,6.029,CST-1368DR,5883,8228,15074,0.141,551
2020-10-18T08:50:38,42.805,6.029,CST-1368DR,5883,8230,15077,0.141,551
2020-10-18T08:53:40,42.805,6.029,CST-1368DR,5883,8229,15076,0.141,551
2020-10-18T08:56:42,42.805,6.029,CST-1368DR,5883,8230,15077,0.141,550
2020-10-18T08:59:43,42.805,6.029,CST-1368DR,5883,8228,15073,0.142,551
2020-10-18T09:02:45,42.805,6.029,CST-1368DR,5883,8228,15073,0.142,551
2020-10-18T09:05:46,42.805,6.029,CST-1368DR,5883,8227,15072,0.142,551
2020-10-18T09:08:48,42.805,6.029,CST-1368DR,5883,8229,15075,0.141,551
2020-10-18T09:11:49,42.805,6.029,CST-1368DR,5883,8228,15074,0.141,551
2020-10-18T09:14:51,42.805,6.029,CST-1368DR,5883,8229,15075,0.141,551
2020-10-18T09:17:53,42.805,6.029,CST-1368DR,5883,8228,15073,0.142,551
2020-10-18T09:20:54,42.805,6.029,CST-1368DR,5883,8228,15074,0.141,551
2020-10-18T09:23:56,42.805,6.029,CST-1368DR,5883,8225,15068,0.143,551
2020-10-18T09:26:57,42.805,6.029,CST-1368DR,5883,8228,15073,0.142,551
2020-10-18T09:29:59,42.805,6.029,CST-1368DR,5883,8225,15067,0.143,551
2020-10-18T09:33:01,42.805,6.029,CST-1368DR,5882,8226,15073,0.142,551
2020-10-18T09:36:02,42.805,6.029,CST-1368DR,5882,8229,15078,0.140,551
2020-10-18T09:39:04,42.805,6.029,CST-1368DR,5882,8229,15077,0.141,551
2020-10-18T09:42:05,42.805,6.029,CST-1368DR,5882,8229,15078,0.140,551
2020-10-18T09:45:07,42.805,6.029,CST-1368DR,5882,8229,15078,0.140,551
2020-10-18T09:48:08,42.805,6.029,CST-1368DR,5882,8229,15078,0.140,551
2020-10-18T09:51:10,42.805,6.029,CST-1368DR,5882,8228,15076,0.141,551
2020-10-18T09:54:12,42.805,6.029,CST-1368DR,5882,8228,15076,0.141,551
2020-10-18T09:57:13,42.805,6.029,CST-1368DR,5882,8228,15076,0.141,551
2020-10-18T10:00:15,42.805,6.029,CST-1368DR,5882,8229,15077,0.141,551
2020-10-18T10:03:16,42.805,6.029,CST-1368DR,5882,8229,15078,0.140,551
2020-10-18T10:06:18,42.805,6.029,CST-1368DR,5882,8229,15078,0.140,551
2020-10-18T10:09:20,42.805,6.029,CST-1368DR,5882,8229,15078,0.140,551
2020-10-18T10:12:21,42.805,6.029,CST-1368DR,5882,8227,15074,0.141,551
2020-10-18T10:15:23,42.805,6.029,CST-1368DR,5882,8228,15076,0.141,551
2020-10-18T10:18:24,42.805,6.029,CST-1368DR,5882,8229,15077,0.141,551
2020-10-18T10:21:26,42.805,6.029,CST-1368DR,5882,8228,15076,0.141,551
2020-10-18T10:24:27,42.805,6.029,CST-1368DR,5882,8228,15076,0.141,551
2020-10-18T10:27:29,42.805,6.029,CST-1368DR,5882,8228,15076,0.141,551
2020-10-18T10:30:31,42.805,6.029,CST-1368DR,5882,8227,15074,0.141,551
2020-10-18T10:33:32,42.805,6.029,CST-1368DR,5882,8227,15074,0.141,551
2020-10-18T10:36:34,42.805,6.029,CST-1368DR,5882,8226,15071,0.142,551
2020-10-18T10:39:35,42.805,6.029,CST-1368DR,5882,8226,15073,0.142,551
2020-10-18T10:42:37,42.805,6.029,CST-1368DR,5882,8229,15077,0.141,551
2020-10-18T10:45:39,42.805,6.029,CST-1368DR,5882,8227,15074,0.141,551
2020-10-18T10:48:40,42.805,6.029,CST-1368DR,5882,8228,15076,0.141,551
2020-10-18T10:51:42,42.805,6.029,CST-1368DR,5882,8227,15074,0.141,551
2020-10-18T10:54:43,42.805,6.029,CST-1368DR,5882,8226,15073,0.142,551
2020-10-18T10:57:45,42.805,6.029,CST-1368DR,5882,8226,15072,0.142,551
2020-10-18T11:00:46,42.805,6.029,CST-1368DR,5882,8228,15076,0.141,551
2020-10-18T11:03:48,42.805,6.029,CST-1368DR,5882,8228,15075,0.141,551
2020-10-18T11:06:50,42.805,6.029,CST-1368DR,5882,8228,15075,0.141,551
2020-10-18T11:09:51,42.805,6.029,CST-1368DR,5882,8227,15074,0.141,551
2020-10-18T11:12:53,42.805,6.029,CST-1368DR,5881,8227,15077,0.141,551
2020-10-18T11:15:54,42.805,6.029,CST-1368DR,5881,8226,15074,0.141,551
2020-10-18T11:18:56,42.805,6.029,CST-1368DR,5881,8227,15076,0.141,551
2020-10-18T11:21:57,42.805,6.029,CST-1368DR,5881,8227,15076,0.141,551
2020-10-18T11:24:59,42.805,6.029,CST-1368DR,5881,8225,15072,0.142,551
2020-10-18T11:28:01,42.805,6.029,CST-1368DR,5881,8228,15078,0.140,551
2020-10-18T11:31:02,42.805,6.029,CST-1368DR,5881,8227,15077,0.141,551
2020-10-18T11:34:04,42.805,6.029,CST-1368DR,5881,8224,15070,0.142,551
2020-10-18T11:37:05,42.805,6.029,CST-1368DR,5881,8229,15079,0.140,551
2020-10-18T11:40:07,42.805,6.029,CST-1368DR,5881,8227,15075,0.141,551
2020-10-18T11:43:09,42.805,6.029,CST-1368DR,5881,8226,15075,0.141,551
2020-10-18T11:46:10,42.805,6.029,CST-1368DR,5881,8221,15065,0.144,551
2020-10-18T11:49:12,42.805,6.029,CST-1368DR,5881,8228,15078,0.140,551
2020-10-18T11:52:13,42.805,6.029,CST-1368DR,5881,8228,15078,0.140,551
2020-10-18T11:55:15,42.805,6.029,CST-1368DR,5881,8225,15072,0.142,551
2020-10-18T11:58:16,42.805,6.029,CST-1368DR,5881,8227,15076,0.141,551
2020-10-18T12:01:18,42.805,6.029,CST-1368DR,5881,8227,15076,0.141,551
2020-10-18T12:04:20,42.805,6.029,CST-1368DR,5881,8226,15074,0.141,551
2020-10-18T12:07:21,42.805,6.029,CST-1368DR,5881,8226,15074,0.141,551
2020-10-18T12:10:23,42.805,6.029,CST-1368DR,5881,8226,15074,0.141,551
2020-10-18T12:13:24,42.805,6.029,CST-1368DR,5881,8227,15075,0.141,551
2020-10-18T12:16:26,42.805,6.029,CST-1368DR,5881,8226,15074,0.141,551
2020-10-18T12:19:27,42.805,6.029,CST-1368DR,5881,8228,15079,0.140,550
2020-10-18T12:22:29,42.805,6.029,CST-1368DR,5881,8226,15074,0.141,551
2020-10-18T12:25:31,42.805,6.029,CST-1368DR,5881,8227,15075,0.141,551
2020-10-18T12:28:32,42.805,6.029,CST-1368DR,5881,8227,15076,0.141,551
2020-10-18T12:31:34,42.805,6.029,CST-1368DR,5881,8227,15076,0.141,550
2020-10-18T12:34:35,42.805,6.029,CST-1368DR,5881,8226,15074,0.141,551
2020-10-18T12:37:37,42.805,6.029,CST-1368DR,5881,8227,15076,0.141,551
2020-10-18T12:40:39,42.805,6.029,CST-1368DR,5881,8227,15075,0.141,551
2020-10-18T12:43:40,42.805,6.029,CST-1368DR,5881,8227,15076,0.141,551
2020-10-18T12:46:42,42.805,6.029,CST-1368DR,5881,8227,15077,0.141,551
2020-10-18T12:49:43,42.805,6.029,CST-1368DR,5881,8224,15071,0.142,551
2020-10-18T12:52:45,42.805,6.029,CST-1368DR,5881,8227,15076,0.141,551
2020-10-18T12:55:46,42.805,6.029,CST-1368DR,5881,8226,15074,0.141,551
2020-10-18T12:58:48,42.805,6.029,CST-1368DR,5881,8226,15075,0.141,551
2020-10-18T13:01:50,42.805,6.029,CST-1368DR,5881,8225,15073,0.142,551
2020-10-18T13:04:51,42.805,6.029,CST-1368DR,5881,8226,15075,0.141,551
2020-10-18T13:07:53,42.805,6.029,CST-1368DR,5881,8227,15076,0.141,551
2020-10-18T13:10:54,42.805,6.029,CST-1368DR,5881,8225,15072,0.142,551
2020-10-18T13:13:56,42.805,6.029,CST-1368DR,5880,8227,15078,0.140,551
2020-10-18T13:16:57,42.805,6.029,CST-1368DR,5880,8227,15079,0.140,551
2020-10-18T13:19:59,42.805,6.029,CST-1368DR,5880,8226,15077,0.141,551
2020-10-18T13:23:01,42.805,6.029,CST-1368DR,5880,8225,15075,0.141,551
2020-10-18T13:26:02,42.805,6.029,CST-1368DR,5880,8227,15078,0.140,551
2020-10-18T13:29:04,42.805,6.029,CST-1368DR,5880,8227,15078,0.140,551
2020-10-18T13:32:05,42.805,6.029,CST-1368DR,5880,8226,15077,0.141,551
2020-10-18T13:35:07,42.805,6.029,CST-1368DR,5880,8224,15072,0.142,550
2020-10-18T13:38:09,42.805,6.029,CST-1368DR,5880,8227,15078,0.140,551
2020-10-18T13:41:10,42.805,6.029,CST-1368DR,5880,8226,15076,0.141,551
2020-10-18T13:44:12,42.805,6.029,CST-1368DR,5880,8226,15076,0.141,551
2020-10-18T13:47:13,42.805,6.029,CST-1368DR,5880,8225,15076,0.141,551
2020-10-18T13:50:15,42.805,6.029,CST-1368DR,5880,8226,15076,0.141,551
2020-10-18T13:53:16,42.805,6.029,CST-1368DR,5880,8225,15076,0.141,551
2020-10-18T13:56:18,42.805,6.029,CST-1368DR,5880,8224,15072,0.142,551
2020-10-18T13:59:20,42.805,6.029,CST-1368DR,5880,8225,15075,0.141,551
2020-10-18T14:02:21,42.805,6.029,CST-1368DR,5880,8226,15076,0.141,550
2020-10-18T14:05:23,42.805,6.029,CST-1368DR,5880,8225,15076,0.141,551
2020-10-18T14:08:24,42.805,6.029,CST-1368DR,5880,8226,15076,0.141,551
2020-10-18T14:11:26,42.805,6.029,CST-1368DR,5880,8226,15076,0.141,551
2020-10-18T14:14:28,42.805,6.029,CST-1368DR,5880,8224,15073,0.142,551
2020-10-18T14:17:29,42.805,6.029,CST-1368DR,5880,8226,15076,0.141,551
2020-10-18T14:20:31,42.805,6.029,CST-1368DR,5880,8225,15075,0.141,551
2020-10-18T14:23:32,42.805,6.029,CST-1368DR,5880,8225,15075,0.141,551
2020-10-18T14:26:34,42.805,6.029,CST-1368DR,5880,8225,15076,0.141,551
2020-10-18T14:29:35,42.805,6.029,CST-1368DR,5880,8224,15072,0.142,551
2020-10-18T14:32:37,42.805,6.029,CST-1368DR,5880,8225,15076,0.141,551
2020-10-18T14:35:39,42.805,6.029,CST-1368DR,5880,8223,15072,0.142,551
2020-10-18T14:38:40,42.805,6.029,CST-1368DR,5880,8224,15073,0.142,551
2020-10-18T14:41:42,42.805,6.029,CST-1368DR,5880,8225,15075,0.141,551
2020-10-18T14:44:43,42.805,6.029,CST-1368DR,5880,8225,15075,0.141,551
2020-10-18T14:47:45,42.805,6.029,CST-1368DR,5880,8225,15076,0.141,550
2020-10-18T14:50:46,42.805,6.029,CST-1368DR,5880,8226,15077,0.141,551
2020-10-18T14:53:48,42.805,6.029,CST-1368DR,5880,8224,15072,0.142,551
2020-10-18T14:56:50,42.805,6.029,CST-1368DR,5880,8225,15076,0.141,551
2020-10-18T14:59:51,42.805,6.029,CST-1368DR,5880,8226,15076,0.141,551
2020-10-18T15:02:53,42.805,6.029,CST-1368DR,5880,8225,15075,0.141,551
2020-10-18T15:05:54,42.805,6.029,CST-1368DR,5880,8226,15076,0.141,551
2020-10-18T15:08:56,42.805,6.029,CST-1368DR,5880,8226,15076,0.141,551
2020-10-18T15:11:58,42.805,6.029,CST-1368DR,5880,8222,15070,0.142,551
2020-10-18T15:14:59,42.805,6.029,CST-1368DR,5880,8224,15072,0.142,551
2020-10-18T15:18:01,42.805,6.029,CST-1368DR,5880,8221,15068,0.143,551
2020-10-18T15:21:02,42.805,6.029,CST-1368DR,5880,8225,15075,0.141,551
2020-10-18T15:24:04,42.805,6.029,CST-1368DR,5880,8224,15072,0.142,551
2020-10-18T15:27:05,42.805,6.029,CST-1368DR,5880,8225,15074,0.141,551
2020-10-18T15:30:07,42.805,6.029,CST-1368DR,5880,8224,15073,0.142,551
2020-10-18T15:33:09,42.805,6.029,CST-1368DR,5880,8225,15075,0.141,551
2020-10-18T15:36:10,42.805,6.029,CST-1368DR,5880,8225,15076,0.141,551
2020-10-18T15:39:12,42.805,6.029,CST-1368DR,5880,8225,15076,0.141,551
2020-10-18T15:42:13,42.805,6.029,CST-1368DR,5880,8225,15075,0.141,551
2020-10-18T15:45:15,42.805,6.029,CST-1368DR,5880,8224,15073,0.142,551
2020-10-18T15:48:17,42.805,6.029,CST-1368DR,5880,8225,15076,0.141,551
2020-10-18T15:51:18,42.805,6.029,CST-1368DR,5880,8225,15074,0.141,551
2020-10-18T15:54:20,42.805,6.029,CST-1368DR,5880,8225,15075,0.141,551
2020-10-18T15:57:21,42.805,6.029,CST-1368DR,5880,8225,15076,0.141,551
2020-10-18T16:00:23,42.805,6.029,CST-1368DR,5880,8224,15073,0.142,551
2020-10-18T16:03:24,42.805,6.029,CST-1368DR,5880,8224,15073,0.142,551
2020-10-18T16:06:26,42.805,6.029,CST-1368DR,5879,8224,15076,0.141,551
2020-10-18T16:09:28,42.805,6.029,CST-1368DR,5879,8223,15074,0.141,551
2020-10-18T16:12:29,42.805,6.029,CST-1368DR,5879,8223,15073,0.142,551
2020-10-18T16:15:31,42.805,6.029,CST-1368DR,5879,8223,15074,0.141,551
2020-10-18T16:18:32,42.805,6.029,CST-1368DR,5879,8224,15075,0.141,551
2020-10-18T16:21:34,42.805,6.029,CST-1368DR,5879,8225,15077,0.141,551
2020-10-18T16:24:35,42.805,6.029,CST-1368DR,5879,8224,15075,0.141,551
2020-10-18T16:27:37,42.805,6.029,CST-1368DR,5879,8224,15076,0.141,551
2020-10-18T16:30:39,42.805,6.029,CST-1368DR,5879,8225,15077,0.141,551
2020-10-18T16:33:40,42.805,6.029,CST-1368DR,5879,8224,15076,0.141,551
2020-10-18T16:36:42,42.805,6.029,CST-1368DR,5879,8225,15077,0.141,551
2020-10-18T16:39:43,42.805,6.029,CST-1368DR,5879,8225,15077,0.141,551
2020-10-18T16:42:45,42.805,6.029,CST-1368DR,5879,8223,15074,0.141,551
2020-10-18T16:45:47,42.805,6.029,CST-1368DR,5879,8223,15073,0.142,551
2020-10-18T16:48:48,42.805,6.029,CST-1368DR,5879,8223,15074,0.141,551
2020-10-18T16:51:50,42.805,6.029,CST-1368DR,5879,8224,15075,0.141,551
2020-10-18T16:54:51,42.805,6.029,CST-1368DR,5879,8224,15075,0.141,551
2020-10-18T16:57:53,42.805,6.029,CST-1368DR,5879,8225,15077,0.141,551
2020-10-18T17:00:54,42.805,6.029,CST-1368DR,5879,8224,15075,0.141,551